KD0ISH Weather Reports


time (UTC)temp
F
wind
direction
speed
knots
gust
knots
rain 1hr
in
rain 24hr
in
rain mn
in
humidity
%
barometer
mb
20260906175208 99 137 1.7 1.7 0.00 0.00 0.00 44 1015.7
20260906174706 99 40 4.3 6.1 0.00 0.00 0.00 45 1015.8
20260906174201 98 222 0.0 0.9 0.00 0.00 0.00 45 1015.8
20260906173656 99 65 2.6 4.3 0.00 0.00 0.00 44 1016.0
20260906173151 99 167 0.9 1.7 0.00 0.00 0.00 45 1016.2
20260906172651 99 253 0.0 0.9 0.00 0.00 0.00 44 1016.1
20260906172147 98 222 1.7 1.7 0.00 0.00 0.00 46 1016.1
20260906171646 98 179 0.9 0.9 0.00 0.00 0.00 45 1016.4
20260906171142 98 107 0.9 1.7 0.00 0.00 0.00 47 1016.4
20260906170638 98 215 0.9 1.7 0.00 0.00 0.00 46 1016.4
20260906170137 98 236 0.9 0.9 0.00 0.00 0.00 48 1016.4
20260906165633 98 147 0.0 0.0 0.00 0.00 0.00 47 1016.7
20260906165129 97 152 0.0 0.0 0.00 0.00 0.00 50 1016.7
20260906164627 96 201 0.0 0.0 0.00 0.00 0.00 51 1016.6
20260906164123 96 226 0.0 0.0 0.00 0.00 0.00 50 1016.6
20260906163619 96 212 0.9 0.9 0.00 0.00 0.00 50 1016.8
20260906163114 95 173 0.9 1.7 0.00 0.00 0.00 53 1016.7
20260906162611 94 217 0.0 0.0 0.00 0.00 0.00 53 1016.8
20260906162106 95 53 3.5 5.2 0.00 0.00 0.00 54 1016.7
20260906161601 94 105 0.9 1.7 0.00 0.00 0.00 54 1016.9
20260906161100 94 107 0.0 0.9 0.00 0.00 0.00 53 1016.8
20260906160559 93 202 1.7 1.7 0.00 0.00 0.00 55 1016.9
20260906160058 92 194 1.7 1.7 0.00 0.00 0.00 57 1016.8
20260906155555 92 100 2.6 2.6 0.00 0.00 0.00 58 1017.1
20260906155052 92 74 2.6 4.3 0.00 0.00 0.00 58 1017.0
20260906154547 91 108 0.0 0.9 0.00 0.00 0.00 61 1016.7
20260906154045 91 183 0.0 0.9 0.00 0.00 0.00 61 1016.8
20260906153544 90 68 0.9 0.9 0.00 0.00 0.00 62 1017.0
20260906153040 89 145 0.0 0.9 0.00 0.00 0.00 64 1016.8
20260906152539 89 123 1.7 1.7 0.00 0.00 0.00 64 1016.9
20260906152039 88 134 0.0 0.9 0.00 0.00 0.00 65 1016.9
20260906151534 87 205 0.0 0.0 0.00 0.00 0.00 66 1017.0
20260906151030 88 101 3.5 4.3 0.00 0.00 0.00 66 1016.9
20260906150525 88 141 0.0 0.0 0.00 0.00 0.00 65 1016.9
20260906150020 87 88 2.6 2.6 0.00 0.00 0.00 65 1016.8
20260906145519 86 186 0.9 0.9 0.00 0.00 0.00 67 1017.0
20260906145014 86 77 0.9 1.7 0.00 0.00 0.00 67 1017.0
20260906144508 86 101 0.0 0.9 0.00 0.00 0.00 68 1016.8
20260906144004 86 188 0.0 0.9 0.00 0.00 0.00 68 1016.8
20260906143459 85 114 0.0 0.0 0.00 0.00 0.00 67 1016.8
20260906142955 85 64 1.7 1.7 0.00 0.00 0.00 69 1016.8
20260906142449 86 69 0.9 1.7 0.00 0.00 0.00 69 1016.8
20260906141944 86 100 0.0 0.0 0.00 0.00 0.00 68 1016.6
20260906141443 85 220 0.0 0.0 0.00 0.00 0.00 69 1016.6
20260906140938 84 220 0.9 0.9 0.00 0.00 0.00 70 1016.5
20260906140433 84 139 0.9 0.9 0.00 0.00 0.00 70 1016.9
20260906135931 84 213 0.0 0.0 0.00 0.00 0.00 70 1016.8
20260906135430 83 222 0.0 0.0 0.00 0.00 0.00 71 1016.5
20260906134926 83 53 1.7 1.7 0.00 0.00 0.00 71 1016.4
20260906134421 82 213 0.0 0.0 0.00 0.00 0.00 71 1016.4
20260906133916 82 204 0.0 0.9 0.00 0.00 0.00 72 1016.6
20260906133412 82 211 0.0 0.0 0.00 0.00 0.00 74 1016.5
20260906132907 82 172 0.9 0.9 0.00 0.00 0.00 73 1016.5
20260906132402 82 66 0.0 0.9 0.00 0.00 0.00 72 1016.4
20260906131858 81 177 0.0 0.9 0.00 0.00 0.00 73 1016.4
20260906131353 80 220 0.0 0.0 0.00 0.00 0.00 75 1016.3
20260906130849 80 174 0.9 0.9 0.00 0.00 0.00 76 1016.2
20260906130348 80 216 0.0 0.0 0.00 0.00 0.00 76 1016.1
20260906125847 80 219 0.0 0.0 0.00 0.00 0.00 77 1016.4
20260906125344 79 194 0.0 0.9 0.00 0.00 0.00 78 1016.2
20260906124839 79 202 0.0 0.0 0.00 0.00 0.00 79 1016.2
20260906124335 78 149 0.0 0.9 0.00 0.00 0.00 81 1016.2
20260906123835 77 102 0.9 1.7 0.00 0.00 0.00 83 1016.2
20260906123330 77 210 0.0 0.0 0.00 0.00 0.00 85 1016.0
20260906122829 76 190 0.0 0.0 0.00 0.00 0.00 85 1016.2
20260906122324 76 203 0.0 0.0 0.00 0.00 0.00 85 1015.7
20260906121821 76 219 0.0 0.0 0.00 0.00 0.00 85 1015.9
20260906121317 76 218 0.0 0.0 0.00 0.00 0.00 85 1015.9
20260906120813 76 235 0.0 0.9 0.00 0.00 0.00 85 1015.9
20260906120309 76 287 0.9 0.9 0.00 0.00 0.00 86 1015.7
20260906115805 75 334 0.0 0.0 0.00 0.00 0.00 86 1015.6
20260906115300 75 296 0.0 0.0 0.00 0.00 0.00 86 1015.3
20260906114759 75 240 0.0 0.0 0.00 0.00 0.00 86 1015.4
20260906114254 75 239 0.0 0.0 0.00 0.00 0.00 87 1015.3
20260906113749 75 236 0.0 0.0 0.00 0.00 0.00 87 1015.5
20260906113248 75 305 0.0 0.0 0.00 0.00 0.00 88 1015.5
20260906112743 75 179 0.0 0.0 0.00 0.00 0.00 90 1015.4
20260906112239 74 69 0.9 0.9 0.00 0.00 0.00 91 1015.4
20260906111739 74 291 0.0 0.9 0.00 0.00 0.00 92 1015.2
20260906111233 73 216 0.0 0.0 0.00 0.00 0.00 92 1015.4
20260906110728 73 216 0.0 0.0 0.00 0.00 0.00 92 1015.2
20260906110225 73 216 0.0 0.0 0.00 0.00 0.00 92 1015.3
20260906105723 73 216 0.0 0.0 0.00 0.00 0.00 92 1015.3
20260906105220 74 216 0.0 0.0 0.00 0.00 0.00 92 1015.5
20260906104719 74 216 0.0 0.0 0.00 0.00 0.00 92 1015.4
20260906104218 74 217 0.0 0.0 0.00 0.00 0.00 92 1015.4
20260906103716 74 217 0.0 0.0 0.00 0.00 0.00 92 1015.5
20260906103211 74 214 0.0 0.0 0.00 0.00 0.00 91 1015.3
20260906102706 74 237 0.0 0.0 0.00 0.00 0.00 91 1015.2
20260906102205 74 237 0.0 0.0 0.00 0.00 0.00 91 1015.2
20260906101700 75 237 0.0 0.0 0.00 0.00 0.00 91 1015.4
20260906101155 75 237 0.0 0.0 0.00 0.00 0.00 91 1015.2
20260906100651 74 237 0.0 0.0 0.00 0.00 0.00 91 1015.1
20260906100151 75 237 0.0 0.0 0.00 0.00 0.00 91 1015.2
20260906095646 75 237 0.0 0.0 0.00 0.00 0.00 90 1015.2
20260906095141 75 237 0.0 0.0 0.00 0.00 0.00 90 1015.3
20260906094640 75 237 0.0 0.0 0.00 0.00 0.00 90 1015.1
20260906094136 75 237 0.0 0.0 0.00 0.00 0.00 90 1015.2
20260906093632 75 237 0.0 0.0 0.00 0.00 0.00 89 1015.2
20260906093132 75 237 0.0 0.0 0.00 0.00 0.00 89 1015.0
20260906092627 75 236 0.0 0.0 0.00 0.00 0.00 89 1015.0
20260906092122 75 236 0.0 0.0 0.00 0.00 0.00 88 1015.1
20260906091618 75 237 0.0 0.0 0.00 0.00 0.00 88 1015.0
20260906091114 75 237 0.0 0.0 0.00 0.00 0.00 88 1015.1
20260906090609 75 237 0.0 0.0 0.00 0.00 0.00 88 1015.0
20260906090109 75 237 0.0 0.0 0.00 0.00 0.00 88 1015.2
20260906085608 75 237 0.0 0.0 0.00 0.00 0.00 88 1015.1
20260906085102 75 237 0.0 0.0 0.00 0.00 0.00 88 1015.0
20260906084557 75 236 0.0 0.0 0.00 0.00 0.00 88 1015.0
20260906084056 75 236 0.0 0.0 0.00 0.00 0.00 87 1015.1
20260906083552 76 236 0.0 0.0 0.00 0.00 0.00 87 1014.9
20260906083051 76 236 0.0 0.0 0.00 0.00 0.00 87 1014.8
20260906082547 76 236 0.0 0.0 0.00 0.00 0.00 87 1014.9
20260906082042 76 236 0.0 0.0 0.00 0.00 0.00 86 1015.0
20260906081538 76 236 0.0 0.0 0.00 0.00 0.00 86 1014.8
20260906081033 76 236 0.0 0.0 0.00 0.00 0.00 86 1014.9
20260906080530 76 236 0.0 0.0 0.00 0.00 0.00 86 1014.9
20260906080026 76 236 0.0 0.0 0.00 0.00 0.00 86 1014.7
20260906075520 76 237 0.0 0.0 0.00 0.00 0.00 86 1014.6
20260906075014 76 237 0.0 0.0 0.00 0.00 0.00 86 1014.8
20260906074509 76 237 0.0 0.0 0.00 0.00 0.00 86 1014.7
20260906074008 76 237 0.0 0.0 0.00 0.00 0.00 86 1014.7
20260906073502 76 237 0.0 0.0 0.00 0.00 0.00 85 1014.8
20260906072958 76 237 0.0 0.0 0.00 0.00 0.00 85 1014.7
20260906072453 76 237 0.0 0.0 0.00 0.00 0.00 85 1014.8
20260906071949 76 237 0.0 0.0 0.00 0.00 0.00 85 1015.0
20260906071446 76 237 0.0 0.0 0.00 0.00 0.00 85 1015.0
20260906070941 76 237 0.0 0.0 0.00 0.00 0.00 84 1014.9
20260906070437 77 237 0.0 0.0 0.00 0.00 0.00 84 1015.0
20260906065932 77 237 0.0 0.0 0.00 0.00 0.00 84 1015.0
20260906065426 77 237 0.0 0.0 0.00 0.00 0.00 83 1014.9
20260906064922 77 237 0.0 0.0 0.00 0.00 0.00 83 1015.1
20260906064413 77 238 0.0 0.0 0.00 0.00 0.00 83 1014.9
20260906063913 77 238 0.0 0.0 0.00 0.00 0.00 82 1015.1
20260906063408 77 238 0.0 0.0 0.00 0.00 0.00 82 1015.2
20260906062903 78 238 0.0 0.0 0.00 0.00 0.00 81 1015.3
20260906062402 78 238 0.0 0.0 0.00 0.00 0.00 81 1015.2
20260906061858 78 239 0.0 0.0 0.00 0.00 0.00 81 1015.3
20260906061354 78 237 0.0 0.0 0.00 0.00 0.00 81 1015.1
20260906060848 78 238 0.0 0.0 0.00 0.00 0.00 81 1015.3
20260906060346 78 238 0.0 0.0 0.00 0.00 0.00 81 1015.2
20260906055842 78 238 0.0 0.0 0.00 0.00 0.00 81 1015.3
20260906055337 78 238 0.0 0.0 0.00 0.00 0.00 81 1015.2
20260906054832 78 238 0.0 0.0 0.00 0.00 0.00 81 1015.4
20260906054327 79 233 0.0 0.0 0.00 0.00 0.00 80 1015.4
20260906053824 79 235 0.0 0.0 0.00 0.00 0.00 79 1015.4
20260906053319 79 235 0.0 0.0 0.00 0.00 0.00 79 1015.2
20260906052814 79 236 0.0 0.0 0.00 0.00 0.00 78 1015.2
20260906052311 79 235 0.0 0.0 0.00 0.00 0.00 78 1015.2
20260906051808 79 235 0.0 0.0 0.00 0.00 0.00 79 1015.3
20260906051307 80 227 0.0 0.0 0.00 0.00 0.00 77 1015.3
20260906050802 80 227 0.0 0.0 0.00 0.00 0.00 76 1015.5
20260906050258 80 227 0.0 0.0 0.00 0.00 0.00 75 1015.3
20260906045756 80 227 0.0 0.0 0.00 0.00 0.00 74 1015.2
20260906045251 80 227 0.0 0.0 0.00 0.00 0.00 73 1015.2
20260906044747 80 227 0.0 0.0 0.00 0.00 0.00 73 1015.1
20260906044242 81 227 0.0 0.0 0.00 0.00 0.00 74 1015.1
20260906043738 81 227 0.0 0.0 0.00 0.00 0.00 73 1015.2
20260906043234 81 227 0.0 0.0 0.00 0.00 0.00 72 1015.2
20260906042733 82 227 0.0 0.0 0.00 0.00 0.00 71 1015.2
20260906042232 82 227 0.0 0.0 0.00 0.00 0.00 71 1015.3
20260906041727 83 227 0.0 0.0 0.00 0.00 0.00 71 1015.3
20260906041223 84 227 0.0 0.0 0.00 0.00 0.00 69 1015.2
20260906040719 84 227 0.0 0.0 0.00 0.00 0.00 66 1015.1
20260906040214 84 240 0.0 0.0 0.00 0.00 0.00 65 1015.3
20260906035709 84 260 0.0 0.0 0.00 0.00 0.00 65 1015.2
20260906035205 84 186 0.0 0.0 0.00 0.00 0.00 66 1015.2
20260906034705 85 222 0.0 0.0 0.00 0.00 0.00 69 1015.2
20260906034159 85 215 0.0 0.0 0.00 0.00 0.00 64 1015.1
20260906033655 85 255 0.0 0.9 0.00 0.00 0.00 63 1015.1
20260906033156 85 103 0.9 0.9 0.00 0.00 0.00 65 1015.1
20260906032652 85 198 0.9 0.9 0.00 0.00 0.00 65 1015.0
20260906032146 84 338 0.9 1.7 0.00 0.00 0.00 65 1014.9
20260906031642 84 223 0.0 0.0 0.00 0.00 0.00 68 1014.8
20260906031137 85 216 0.0 0.0 0.00 0.00 0.00 68 1014.7
20260906030636 85 235 0.0 0.0 0.00 0.00 0.00 66 1014.7
20260906030132 86 238 0.0 0.0 0.00 0.00 0.00 65 1014.5
20260906025631 86 256 0.9 0.9 0.00 0.00 0.00 65 1014.6
20260906025130 86 331 0.9 0.9 0.00 0.00 0.00 64 1014.6
20260906024625 85 82 0.9 1.7 0.00 0.00 0.00 64 1014.4
20260906024125 84 223 0.0 0.0 0.00 0.00 0.00 70 1014.5
20260906023621 85 223 0.0 0.0 0.00 0.00 0.00 70 1014.4
20260906023115 85 221 0.0 0.0 0.00 0.00 0.00 69 1014.3
20260906022610 85 218 0.0 0.0 0.00 0.00 0.00 69 1014.3
20260906022106 85 199 0.0 0.0 0.00 0.00 0.00 67 1014.1
20260906021602 85 233 0.0 0.0 0.00 0.00 0.00 67 1014.0
20260906021101 85 231 0.0 0.0 0.00 0.00 0.00 69 1013.8
20260906020600 85 230 0.0 0.0 0.00 0.00 0.00 69 1013.7
20260906020100 85 231 0.0 0.0 0.00 0.00 0.00 68 1013.6
20260906015554 85 231 0.0 0.0 0.00 0.00 0.00 68 1013.6
20260906015054 86 230 0.0 0.0 0.00 0.00 0.00 67 1013.6
20260906014548 86 230 0.0 0.0 0.00 0.00 0.00 66 1013.6
20260906014044 86 230 0.0 0.0 0.00 0.00 0.00 65 1013.2
20260906013539 86 230 0.0 0.0 0.00 0.00 0.00 65 1013.5
20260906013035 87 230 0.0 0.0 0.00 0.00 0.00 64 1013.4
20260906012530 87 230 0.0 0.0 0.00 0.00 0.00 62 1013.3
20260906012029 88 230 0.0 0.0 0.00 0.00 0.00 61 1013.3
20260906011526 88 229 0.0 0.0 0.00 0.00 0.00 61 1013.3
20260906011025 88 230 0.0 0.0 0.00 0.00 0.00 60 1013.4
20260906010521 89 228 0.0 0.0 0.00 0.00 0.00 61 1013.4
20260906010017 90 235 0.0 0.0 0.00 0.00 0.00 58 1013.1
20260906005516 90 235 0.0 0.0 0.00 0.00 0.00 57 1013.3
20260906005015 91 240 0.0 0.0 0.00 0.00 0.00 56 1013.2
20260906004515 91 220 0.0 0.0 0.00 0.00 0.00 56 1013.1
20260906004010 91 227 0.0 0.0 0.00 0.00 0.00 56 1013.1
20260906003505 93 232 0.0 0.0 0.00 0.00 0.00 54 1013.0
20260906003000 93 233 0.0 0.0 0.00 0.00 0.00 53 1013.0
20260906002455 94 233 0.0 0.0 0.00 0.00 0.00 52 1012.9
20260906001950 95 233 0.0 0.0 0.00 0.00 0.00 50 1013.2
20260906001446 96 233 0.0 0.0 0.00 0.00 0.00 50 1013.2
20260906000940 97 233 0.0 0.0 0.00 0.00 0.00 48 1013.2
20260906000436 98 233 0.0 0.0 0.00 0.00 0.00 46 1013.1
20260905235925 98 233 0.0 0.0 0.00 0.00 0.00 44 1013.2
20260905235424 100 231 0.0 0.0 0.00 0.00 0.00 42 1013.1
20260905234919 101 230 0.0 0.0 0.00 0.00 0.00 39 1013.1
20260905234415 101 229 0.0 0.0 0.00 0.00 0.00 38 1013.2
20260905233910 101 228 0.0 0.0 0.00 0.00 0.00 39 1013.1
20260905233405 102 233 0.0 0.0 0.00 0.00 0.00 38 1013.1
20260905232904 101 233 0.0 0.0 0.00 0.00 0.00 38 1013.1
20260905232400 100 235 0.0 0.0 0.00 0.00 0.00 39 1013.2
20260905231855 100 229 0.0 0.0 0.00 0.00 0.00 40 1013.2
20260905231350 100 240 0.0 0.0 0.00 0.00 0.00 39 1013.1
20260905230847 102 43 0.0 0.9 0.00 0.00 0.00 39 1013.1
20260905230344 103 212 0.0 0.0 0.00 0.00 0.00 37 1012.9
20260905225844 104 226 0.0 0.0 0.00 0.00 0.00 36 1013.1
20260905225339 102 231 0.0 0.0 0.00 0.00 0.00 38 1013.0
20260905224834 101 227 0.0 0.0 0.00 0.00 0.00 38 1013.0
20260905224329 101 275 0.9 0.9 0.00 0.00 0.00 38 1013.0
20260905223824 101 194 0.0 0.9 0.00 0.00 0.00 38 1013.0
20260905223322 101 218 0.0 0.0 0.00 0.00 0.00 38 1013.0
20260905222817 100 103 0.9 1.7 0.00 0.00 0.00 38 1013.0
20260905222316 101 190 0.0 0.9 0.00 0.00 0.00 38 1013.2
20260905221812 101 228 0.0 0.0 0.00 0.00 0.00 38 1013.1
20260905221309 101 227 0.0 0.0 0.00 0.00 0.00 37 1013.1
20260905220804 102 206 0.9 0.9 0.00 0.00 0.00 37 1013.2
20260905220300 102 191 0.9 0.9 0.00 0.00 0.00 36 1013.0
20260905215759 102 198 0.0 0.9 0.00 0.00 0.00 36 1013.3
20260905215255 102 221 0.0 0.0 0.00 0.00 0.00 37 1013.3
20260905214750 103 206 0.0 0.0 0.00 0.00 0.00 38 1013.3
20260905214246 104 221 0.9 1.7 0.00 0.00 0.00 36 1013.5
20260905213741 103 206 0.0 0.9 0.00 0.00 0.00 37 1013.4
20260905213237 102 218 0.9 0.9 0.00 0.00 0.00 39 1013.5
20260905212732 102 232 0.0 0.9 0.00 0.00 0.00 38 1013.6
20260905212232 102 203 0.0 0.9 0.00 0.00 0.00 38 1013.6
20260905211731 102 213 0.0 0.0 0.00 0.00 0.00 36 1013.7
20260905211227 100 229 0.0 0.0 0.00 0.00 0.00 39 1013.7
20260905210724 102 210 0.9 0.9 0.00 0.00 0.00 38 1013.8
20260905210223 101 207 1.7 1.7 0.00 0.00 0.00 37 1013.9
20260905205722 102 303 0.0 0.0 0.00 0.00 0.00 38 1014.1
20260905205216 102 233 0.0 0.0 0.00 0.00 0.00 39 1014.1
20260905204711 101 244 0.9 0.9 0.00 0.00 0.00 39 1014.3
20260905204206 100 234 0.0 0.0 0.00 0.00 0.00 40 1014.1
20260905203700 100 68 2.6 2.6 0.00 0.00 0.00 41 1014.4
20260905203156 100 91 0.9 1.7 0.00 0.00 0.00 42 1014.4
20260905202651 100 85 3.5 5.2 0.00 0.00 0.00 42 1014.6
20260905202146 100 42 4.3 5.2 0.00 0.00 0.00 42 1014.4
20260905201642 100 47 1.7 1.7 0.00 0.00 0.00 42 1014.5
20260905201136 100 65 4.3 5.2 0.00 0.00 0.00 42 1014.7
20260905200632 101 104 0.9 0.9 0.00 0.00 0.00 41 1014.5
20260905200127 101 193 0.9 0.9 0.00 0.00 0.00 41 1014.6
20260905195625 101 221 1.7 1.7 0.00 0.00 0.00 41 1014.8
20260905195121 102 223 0.0 0.0 0.00 0.00 0.00 41 1014.6
20260905194621 101 228 0.0 0.9 0.00 0.00 0.00 42 1014.9
20260905194120 102 142 0.9 1.7 0.00 0.00 0.00 42 1014.9
20260905193615 101 224 0.0 0.9 0.00 0.00 0.00 41 1014.8
20260905193110 100 252 1.7 1.7 0.00 0.00 0.00 42 1014.9
20260905192606 99 222 0.9 0.9 0.00 0.00 0.00 44 1015.2
20260905192102 99 18 2.6 4.3 0.00 0.00 0.00 43 1015.3
20260905191600 98 73 1.7 1.7 0.00 0.00 0.00 44 1015.4
20260905191059 98 55 1.7 2.6 0.00 0.00 0.00 43 1015.4
20260905190557 100 60 2.6 4.3 0.00 0.00 0.00 44 1015.6
20260905190056 101 207 0.9 1.7 0.00 0.00 0.00 41 1015.4
20260905185556 99 238 1.7 2.6 0.00 0.00 0.00 42 1015.7
20260905185050 100 202 0.0 0.9 0.00 0.00 0.00 43 1015.8
20260905184545 99 238 2.6 2.6 0.00 0.00 0.00 42 1015.7
20260905184044 98 159 0.0 0.0 0.00 0.00 0.00 43 1015.6
20260905183543 98 71 2.6 4.3 0.00 0.00 0.00 44 1015.9
20260905183039 99 154 0.0 0.9 0.00 0.00 0.00 43 1016.2
20260905182539 98 223 0.0 0.9 0.00 0.00 0.00 43 1016.0
20260905182038 98 187 0.0 0.9 0.00 0.00 0.00 43 1016.1
20260905181533 98 211 0.0 0.9 0.00 0.00 0.00 43 1016.2
20260905181033 99 236 0.0 0.0 0.00 0.00 0.00 42 1016.4
20260905180527 98 244 1.7 1.7 0.00 0.00 0.00 42 1016.4
20260905180023 99 87 0.9 2.6 0.00 0.00 0.00 43 1016.4